Theta_e
307 307 306 306 306 306 307 307 307 307 308 308 308 309 309 309 309 309 309 309 309 311 312 312 312 311 312 315 316 322 321 320 318 320 316 319 323 324 320 322 322 319 321 324 325 326 328
306 306 306 307 307 307 308 308 308 308 308 308 308 309 309 309 309 309 309 309 309 310 311 312 313 312 311 317 322 323 323 321 318 316 315 322 324 324 324 322 320 323 324 324 325 325 325
308 308 308 308 308 308 308 308 308 309 309 309 309 309 309 309 310 310 310 310 309 309 310 313 313 311 312 315 322 325 323 326 318 316 317 323 324 324 323 322 325 326 322 320 324 325 323
307 308 308 309 309 309 309 309 310 310 310 310 310 309 309 309 309 310 310 310 310 309 311 314 313 310 311 317 319 321 325 327 321 321 322 323 323 324 323 326 325 322 322 321 321 324 324
309 309 309 309 309 309 309 310 310 310 310 310 310 310 310 309 309 310 311 310 309 310 314 313 311 311 319 319 320 322 322 325 323 322 322 323 323 323 325 322 320 322 322 322 322 324 323
308 307 307 306 306 306 307 307 307 308 309 310 310 311 311 311 310 310 311 312 312 316 317 312 312 319 320 319 322 322 321 324 323 322 323 323 324 323 321 320 321 321 323 321 321 322 322
309 309 308 308 307 307 307 307 307 307 307 308 308 310 311 311 310 310 315 322 320 325 321 321 319 319 317 322 322 322 321 323 325 323 321 323 322 321 321 321 322 323 323 323 324 326 324
310 310 310 311 311 311 310 308 307 307 308 308 309 309 309 311 310 312 314 315 316 314 315 316 318 323 322 322 322 321 320 321 325 321 321 321 322 322 323 324 324 324 323 322 325 327 326
311 311 312 311 311 311 310 310 309 307 308 308 309 309 309 311 310 315 314 315 315 314 317 318 318 318 322 324 324 323 321 321 324 324 320 321 323 325 324 324 325 324 326 325 324 324 323
311 311 311 311 311 310 309 307 308 307 307 308 308 309 310 310 314 312 316 314 312 313 319 322 321 320 319 324 324 321 322 322 323 324 322 321 323 325 325 325 325 325 326 326 324 322 321
311 311 311 311 310 309 308 306 306 306 307 307 308 309 310 308 310 311 314 313 312 316 328 327 323 322 320 324 321 319 321 321 322 324 324 322 323 324 325 326 325 325 326 325 326 325 323
311 310 310 310 310 309 307 306 306 307 308 308 309 309 310 309 310 312 312 312 313 319 326 327 324 322 321 323 323 321 320 321 322 323 323 323 326 324 324 326 326 326 326 324 326 324 323
310 309 307 308 308 307 305 307 307 307 308 308 309 309 309 309 311 312 311 313 315 319 323 325 325 324 323 323 323 323 320 319 321 322 323 324 324 324 325 325 325 325 324 325 326 324 325
309 308 307 306 306 305 305 306 306 306 305 304 307 308 310 311 312 311 313 314 317 319 320 323 324 325 324 324 323 323 321 318 320 322 322 323 325 325 325 324 324 323 321 325 328 328 326
307 307 306 305 304 305 306 305 304 303 302 303 304 305 308 312 313 311 313 314 316 317 319 321 319 324 325 324 324 323 323 321 321 321 322 324 324 325 324 325 323 323 324 323 327 326 327
304 303 302 302 303 303 302 302 302 302 301 301 303 307 310 312 312 313 313 314 316 317 318 318 318 321 323 324 324 323 323 324 323 322 322 322 323 326 326 324 324 323 325 326 325 328 330
303 303 303 302 302 301 300 300 300 300 300 302 304 312 314 313 313 313 313 314 315 315 316 318 318 318 318 321 324 323 325 325 325 323 322 322 322 324 324 325 324 323 322 325 326 326 328
302 302 302 302 301 300 300 300 299 299 299 302 306 310 314 314 315 315 314 315 315 316 316 317 317 317 318 319 322 322 322 324 326 325 324 323 322 324 324 325 325 322 323 323 325 329 331
301 300 301 302 301 299 299 299 299 300 300 300 306 309 313 314 315 315 316 317 317 318 317 317 318 318 318 318 321 322 322 322 322 325 325 324 323 325 327 326 327 324 324 325 325 329 331
299 301 302 301 300 298 299 299 299 299 299 300 305 310 311 314 314 315 315 315 315 315 317 319 318 317 317 317 319 320 320 321 321 322 326 327 327 324 325 326 329 328 326 324 325 327 326
299 301 301 300 299 298 299 298 299 299 299 300 306 308 310 312 314 314 315 316 318 318 317 316 318 320 317 316 318 319 319 320 321 322 327 326 328 332 326 329 328 329 328 325 324 328 327
299 299 298 298 298 298 299 298 298 299 298 300 304 308 308 309 310 312 313 314 315 317 318 319 317 320 320 317 317 319 321 319 321 325 324 328 326 331 330 328 326 326 327 328 327 329 328
298 298 298 298 297 297 298 298 298 299 299 303 305 305 307 309 309 310 311 312 312 313 315 315 315 317 319 320 321 320 320 320 320 322 321 327 328 329 328 328 327 328 327 328 329 329 327
298 297 298 298 297 297 297 297 298 298 298 300 302 303 305 308 308 308 309 310 312 312 313 313 314 316 318 318 319 322 318 318 318 318 320 324 326 330 326 328 330 328 328 329 330 329 330
298 297 298 297 297 297 297 297 297 298 298 298 301 302 303 305 306 307 308 309 310 311 312 314 314 317 318 320 322 323 319 321 323 320 318 327 329 333 329 331 328 328 329 329 332 330 331
297 297 297 296 297 297 297 296 297 298 298 298 300 302 302 302 304 305 305 307 308 312 314 314 313 314 318 323 324 326 323 323 325 321 319 328 330 333 331 332 332 331 333 331 331 334 330
297 296 296 297 297 296 298 297 297 299 298 298 299 301 302 303 303 303 305 307 307 308 309 312 312 313 319 323 324 326 327 325 325 322 321 333 335 334 335 331 331 332 330 331 331 332 335
297 297 297 296 296 296 297 297 297 298 299 299 298 300 301 303 304 304 304 305 306 306 308 310 311 311 318 321 323 326 325 324 324 324 324 333 332 331 331 332 334 331 329 330 330 334 332
296 295 295 296 296 296 295 297 297 297 298 298 299 299 301 302 303 304 304 305 305 305 306 307 311 309 314 309 313 315 324 328 327 324 324 335 331 330 330 330 329 331 331 328 331 335 334
Wind_Speed
12 12 13 14 14 14 15 16 16 17 17 17 17 18 18 18 17 17 16 16 15 14 13 12 12 11 9 8 20 10 11 6 7 16 18 15 14 19 7 11 20 9 19 30 28 27 7
11 12 13 14 15 16 16 16 17 17 18 18 18 18 19 19 18 18 17 16 15 14 13 12 11 10 9 9 2 8 7 9 9 16 19 15 15 17 20 20 9 27 26 23 24 22 21
12 12 13 13 14 15 16 17 17 18 18 18 18 19 19 19 19 19 17 16 15 13 12 11 9 10 13 23 2 6 8 5 8 11 15 11 15 22 19 11 23 24 9 9 9 13 7
13 14 15 15 15 15 16 16 16 18 19 19 19 19 19 19 19 19 18 16 14 11 9 8 8 9 13 7 18 12 16 9 6 11 13 15 17 20 15 19 21 9 7 5 8 13 21
13 13 14 15 16 17 17 18 18 18 18 19 19 20 20 20 19 18 16 14 12 9 7 6 6 7 14 4 18 16 16 17 11 13 18 14 15 17 10 6 7 6 6 9 13 19 8
13 14 14 14 15 16 17 18 19 19 20 20 20 19 19 19 18 17 13 13 9 7 5 6 9 8 15 16 14 14 16 18 17 17 18 16 5 2 4 1 7 10 6 9 11 11 12
11 12 14 16 17 18 18 17 18 19 20 20 20 20 20 18 16 13 9 11 8 3 5 11 8 15 17 7 11 16 19 17 20 15 6 16 3 7 11 12 15 12 12 14 11 5 8
12 14 14 15 16 18 20 20 19 19 19 20 21 20 19 17 12 7 10 13 9 12 16 21 31 33 35 20 16 17 19 21 18 7 10 6 11 11 14 15 15 16 10 10 8 10 4
15 15 17 18 19 20 20 21 21 21 20 19 20 20 19 15 6 5 9 10 9 17 8 19 33 32 37 21 23 17 19 26 10 8 9 11 11 18 17 16 13 10 3 8 8 12 6
18 17 18 18 19 21 22 21 20 21 21 20 19 19 18 15 3 8 3 9 13 14 4 8 9 12 29 28 23 21 23 22 12 12 11 9 21 17 15 13 11 5 4 8 12 7 4
18 20 20 20 21 23 23 22 21 21 21 20 19 18 14 15 12 10 8 12 16 6 4 5 12 6 18 22 3 27 25 27 15 12 8 14 14 11 16 10 9 7 5 6 8 9 4
17 18 19 21 23 23 23 23 22 23 22 22 20 17 18 9 13 4 5 12 5 0 7 5 7 8 10 25 28 6 26 24 25 11 13 11 23 16 18 11 9 5 6 7 4 3 3
19 20 20 20 20 21 22 22 23 23 22 22 23 19 18 17 5 6 7 5 2 4 8 6 7 7 9 13 17 19 11 11 11 10 16 15 17 15 16 9 5 5 1 2 3 3 7
20 19 20 21 23 23 21 20 20 22 22 22 21 20 19 20 11 8 2 2 5 9 12 12 15 10 12 10 15 16 11 14 12 11 3 11 12 17 12 10 8 7 9 6 6 5 6
19 19 20 20 19 19 20 22 21 20 18 22 22 17 21 16 9 11 3 4 6 7 9 9 20 11 7 8 11 16 16 13 14 17 15 5 18 15 15 6 10 9 6 9 4 6 3
14 15 14 14 15 17 17 18 19 21 17 19 21 18 13 7 10 10 3 4 6 11 15 13 10 11 11 11 7 10 14 12 15 17 22 14 12 17 11 16 12 11 7 4 1 5 5
15 16 15 16 16 15 15 17 17 18 12 11 11 10 7 13 17 16 5 6 9 23 24 7 7 14 18 18 14 12 7 15 12 15 17 15 8 23 12 5 14 4 5 3 4 6 6
18 19 18 16 17 15 14 14 15 15 9 6 5 4 10 14 5 7 8 7 8 19 29 17 16 15 15 19 15 11 15 12 23 24 17 11 10 8 17 20 9 11 11 10 5 5 3
19 21 19 17 16 14 13 12 11 12 10 9 4 10 10 11 4 7 14 18 24 18 18 18 15 15 17 17 8 5 13 24 33 14 17 11 6 8 10 9 6 8 8 7 5 5 7
22 18 17 17 16 14 11 9 9 9 7 6 5 3 9 18 18 9 10 13 16 20 22 22 20 20 18 16 10 13 18 16 34 31 31 26 7 13 13 11 5 3 6 7 7 4 5
16 16 16 16 16 18 12 10 7 5 4 5 4 7 8 2 8 9 10 10 14 15 21 28 10 15 17 15 15 16 16 20 27 32 7 8 8 7 11 13 14 8 9 11 9 7 8
14 14 15 19 16 12 11 10 7 5 5 6 6 7 12 18 14 11 9 8 14 15 14 15 13 17 18 15 17 13 10 14 14 9 8 8 4 7 8 13 18 15 15 11 9 7 6
14 14 13 10 10 12 11 10 8 7 6 4 8 8 9 8 6 6 7 10 15 19 15 17 18 17 19 16 34 38 27 25 13 6 11 6 3 5 7 7 8 14 17 15 9 9 7
15 13 12 12 11 13 13 11 11 10 10 12 4 10 6 5 7 9 15 18 14 17 6 20 22 15 18 41 45 31 30 27 22 9 15 13 8 2 5 4 12 6 8 10 12 15 6
16 14 12 12 11 12 13 12 11 11 10 12 5 3 4 5 13 17 18 17 19 25 12 14 27 14 22 18 7 8 10 10 20 17 15 9 9 5 6 7 6 12 10 6 3 5 18
15 15 14 12 11 10 12 12 11 10 9 12 10 8 7 6 8 18 23 19 9 7 8 10 23 25 10 3 4 5 10 14 8 5 13 8 7 7 2 9 15 1 3 6 2 4 10
14 14 14 13 12 11 11 11 11 9 10 12 13 9 11 11 27 26 13 12 17 12 7 8 11 13 4 2 3 7 7 11 16 11 12 4 4 8 6 7 5 2 2 3 6 7 13
14 13 13 13 12 12 11 11 13 12 12 13 15 11 13 14 27 32 27 27 21 16 5 9 10 7 4 1 3 6 8 12 9 14 13 8 7 4 3 3 6 3 4 5 5 25 32
12 13 13 13 11 11 12 11 12 15 13 13 16 10 14 19 22 27 26 27 25 24 16 6 3 2 5 3 4 7 7 4 3 11 8 5 7 8 9 8 11 20 5 17 25 35 37
Wind_Direction
351 352 352 350 348 346 344 342 340 339 338 337 336 334 332 330 328 325 322 318 312 306 303 297 293 287 280 272 253 328 286 302 228 225 231 205 244 259 258 268 269 262 263 271 282 292 245
342 341 343 342 343 342 342 340 338 336 335 334 333 331 329 327 325 323 320 317 312 303 297 292 286 276 262 258 344 224 290 265 239 218 210 209 243 238 252 260 262 275 283 267 265 285 300
333 334 334 335 337 338 339 339 338 337 336 334 333 331 328 325 323 320 318 316 311 301 292 286 277 265 250 240 74 242 287 269 224 222 197 219 251 264 281 302 278 288 290 303 294 268 265
339 340 339 338 338 338 337 337 337 336 335 335 334 333 331 327 322 320 318 315 308 299 287 276 265 258 258 243 225 217 229 255 223 227 224 238 261 273 285 298 310 301 318 310 272 266 254
335 339 341 341 339 339 337 337 336 335 335 335 335 336 334 331 326 321 321 313 305 293 280 259 251 250 268 290 226 217 211 225 226 228 238 258 268 272 275 295 315 297 234 252 271 253 202
332 335 338 341 342 341 339 337 336 335 334 334 335 337 335 335 332 325 330 321 302 290 275 257 217 283 257 230 218 220 206 213 212 222 230 245 275 291 310 274 240 253 258 269 255 264 175
325 332 337 338 338 338 338 338 336 335 334 334 334 336 336 338 338 333 8 21 349 36 268 234 237 222 286 261 203 206 206 213 219 209 217 238 186 233 225 235 242 267 277 278 282 303 144
320 324 327 329 330 331 332 331 330 331 332 332 334 336 336 340 346 16 354 358 14 326 295 269 258 255 259 258 267 200 196 214 223 195 208 255 225 233 242 245 246 256 280 288 308 337 89
311 314 316 320 324 325 324 323 323 325 326 329 330 332 336 343 351 352 347 352 337 334 281 282 245 233 232 242 250 216 213 208 209 209 212 216 244 223 245 262 267 265 285 310 294 312 325
303 305 309 311 315 319 320 319 318 318 319 322 325 327 335 342 340 322 42 329 350 334 295 267 200 240 221 229 257 223 212 220 218 221 220 232 237 253 241 245 258 263 299 289 289 322 278
299 304 306 307 312 316 317 317 317 316 315 316 317 319 325 327 323 308 297 336 330 331 327 167 165 198 190 197 173 211 219 210 216 227 192 234 242 249 250 235 230 235 289 269 279 313 304
291 295 299 302 306 310 312 312 314 315 314 314 310 311 305 302 306 328 305 320 324 345 249 278 129 159 166 204 225 224 210 220 223 241 252 245 230 234 242 245 207 266 275 297 313 38 343
292 295 297 296 297 303 307 310 312 312 312 310 305 302 293 287 236 308 308 1 0 233 297 265 161 181 211 198 206 220 209 228 199 212 246 266 263 257 251 226 235 173 187 320 340 333 250
286 290 296 300 302 302 301 303 306 308 312 308 302 300 282 269 267 236 322 351 234 268 237 313 319 214 193 219 199 211 217 212 217 215 219 233 261 253 246 199 179 202 164 164 210 222 260
282 288 295 297 301 300 301 306 307 307 317 312 313 310 286 266 220 205 229 201 206 209 269 3 337 324 267 212 216 197 222 218 211 199 224 235 232 260 230 211 148 247 236 199 199 275 339
288 293 299 304 306 304 307 308 310 310 325 318 321 323 307 234 182 166 207 251 237 258 308 352 319 305 313 295 237 201 201 219 222 207 203 244 274 272 277 227 194 179 200 199 339 249 241
288 292 296 301 312 309 306 308 311 307 315 307 322 324 348 154 185 191 217 216 266 274 285 280 280 290 304 306 310 324 283 223 211 205 204 213 197 267 282 264 205 180 229 218 150 163 196
284 288 287 291 302 306 305 305 310 318 317 271 308 261 145 169 145 219 234 261 266 283 292 289 295 298 276 289 297 307 293 284 262 205 217 207 198 236 257 267 241 173 190 183 149 274 216
280 283 280 280 288 298 300 305 314 333 344 336 287 274 213 200 231 237 257 265 268 267 262 275 273 280 283 285 302 280 299 299 303 298 202 208 221 225 276 299 319 217 197 181 173 149 220
284 269 265 271 282 296 287 289 301 324 326 319 297 280 227 199 226 260 281 289 291 292 292 287 267 272 280 278 253 270 281 292 306 302 305 186 176 201 221 239 233 221 185 207 159 162 210
269 258 264 270 279 286 271 280 285 304 307 315 242 258 303 282 228 269 260 264 285 294 296 293 310 267 261 277 276 260 269 287 294 296 268 146 188 178 220 211 248 261 275 214 213 204 180
257 261 272 275 272 262 255 266 268 271 287 269 289 353 333 306 306 306 309 303 295 290 291 298 291 317 334 264 250 262 271 268 268 339 348 304 214 166 221 219 227 253 270 265 221 261 209
255 270 266 261 271 256 258 265 258 254 252 224 339 313 316 296 297 301 274 283 289 283 295 313 331 327 305 303 329 301 278 268 253 301 303 303 329 144 237 221 217 246 234 252 220 215 220
251 257 252 260 269 266 252 259 249 246 245 238 299 325 296 283 291 286 293 292 296 302 316 304 318 304 297 308 316 306 255 266 266 252 248 274 263 214 216 180 229 239 200 249 260 204 158
247 251 254 257 263 273 256 253 246 240 240 247 231 263 292 286 288 286 284 294 328 302 307 324 304 302 326 310 319 274 250 257 259 250 248 223 231 253 183 207 244 239 256 228 103 250 153
243 252 246 257 260 256 256 251 242 243 237 237 226 243 248 283 244 257 330 315 300 315 316 291 307 318 322 22 272 243 240 230 240 226 226 233 226 220 191 207 229 122 124 262 97 70 7
240 244 249 249 253 253 254 251 233 235 233 235 227 224 253 256 266 275 284 300 303 315 306 310 333 324 343 85 282 250 278 220 232 222 215 159 99 201 225 232 247 109 273 282 124 195 55
236 238 242 248 249 253 251 254 235 234 235 245 248 229 255 265 275 274 275 288 302 284 271 320 334 13 313 17 246 226 264 230 244 225 206 171 158 183 136 63 266 182 70 150 189 132 107
236 241 245 241 244 251 248 249 243 239 243 244 257 228 275 252 268 273 271 264 259 263 272 260 255 122 347 22 349 335 280 312 242 233 227 166 180 176 184 200 276 286 242 146 131 128 128